Flag for Norway Weather past 2 weeks in Søgne, Norway

Now
68 °F

Mild.


Feels Like: 68 °F
Forecast: 64 / 73 °F
Wind: 6 mph from Northeast

Location: Oksoy Fyr

Current Time: Jul 26, 2014 at 7:51:18 AM

Latest Report: Jul 26, 2014 at 7:00 AM


Visibility: N/A

Pressure: 30.10 "Hg

Humidity: 79%

Dew point: 62 °F

Location of SøgneLocation

Historic Weather in Søgne — Graph

°F

Søgne temperature yesterday

Maximum temperature yesterday: 77 °F (at 12:00 PM)
Minimum temperature yesterday: 67 °F (at 3:00 AM)
Average temperature yesterday: 72 °F

Past Weeks' High & Low Weather Summary

 TemperatureHumidityPressure
High77 °F (Jul 23, 7:00 PM)94% (Jul 15, 1:00 PM)30.30 "Hg (Jul 15, 1:00 PM)
Low57 °F (Jul 19, 5:00 AM)50% (Jul 16, 1:00 PM)29.57 "Hg (Jul 14, 4:00 AM)
Average67 °F76%30.05 "Hg
* Reported Jul 11 6:00 AM — Jul 26 6:00 AM, Søgne, Weather by CustomWeather, © 2014

Note: Actual official high and low records may vary slightly from our data, if they occured in-between our weather recording intervals... More about our weather records

Advertising

Søgne weather history for previous 24 hours

 ConditionsComfort  
Time TempWeatherWind HumidityBarometerVisibility
6:00 AM
Jul 26
69 °FMild.6 mph75%30.10 "HgN/A
5:00 AM70 °FMild.5 mph74%30.09 "HgN/A
4:00 AM69 °FMild.5 mph73%30.10 "HgN/A
3:00 AM69 °FMild.6 mph75%30.10 "HgN/A
2:00 AM69 °FMild.5 mph76%30.12 "HgN/A
1:00 AM69 °FMild.2 mph78%30.13 "HgN/A
12:00 AM69 °FMild.3 mph79%30.12 "HgN/A
11:00 PM
Jul 25
71 °FMild.2 mph80%30.12 "HgN/A
10:00 PM72 °FMild.2 mph71%30.11 "HgN/A
9:00 PM73 °FMild.2 mph74%30.12 "HgN/A
8:00 PM74 °FMild.5 mph76%30.12 "HgN/A
7:00 PM75 °FMild.5 mph77%30.12 "HgN/A
6:00 PM75 °FMild.6 mph75%30.13 "HgN/A
5:00 PM76 °FMild.6 mph73%30.15 "HgN/A
4:00 PM75 °FMild.8 mph75%30.15 "HgN/A
3:00 PM75 °FMild.9 mph76%30.16 "HgN/A
2:00 PM75 °FMild.10 mph72%30.17 "HgN/A
1:00 PM76 °FMild.10 mph68%30.18 "HgN/A
12:00 PM77 °FMild.9 mph63%30.18 "HgN/A
11:00 AM75 °FMild.10 mph61%30.18 "HgN/A
10:00 AM75 °FMild.8 mph61%30.18 "HgN/A
9:00 AM73 °FMild.7 mph64%30.18 "HgN/A
8:00 AM70 °FMild.3 mph75%30.18 "HgN/A
7:00 AM68 °FMild.5 mph78%30.18 "HgN/A
Weather by CustomWeather, © 2014

See weather overviewHow to use our weather pages